sat.trackr.live / text

‹ back to catalog

STARLINK-35557

NORAD 66237 · 2025-245D

PAYLOAD ACTIVE UNKNOWN

§ Identity

Operator
Country
US
Launch date
2025-10-29
Launch site
AFETR
Launch vehicle
Mass (kg)
RCS (m²)

Purposes: comms

External: N2YO · Heavens-Above · Gunter

§ Orbital elements

Epoch: 2026-09-20T23:02:42.123264Z

Period
93.85 min
Inclination
53.1577°
Eccentricity
0.0000999
Mean motion
15.34409030 rev/d
Perigee alt
462.0 km
Apogee alt
463.4 km
Semi-major
6,840.8 km
B*
7.6238e-4
RAAN
91.8976°
Arg perigee
76.3470°
Mean anomaly
283.7644°
Rev number
5,122

§ Raw data

STARLINK-355571 66237U 25245D   26263.96020976  .00025477  00000+0  76238-3 0  99932 66237  53.1577  91.8976 0000999  76.3470 283.7644 15.34409030 51221

JSON: /api/v1/satellites/66237 · /tle

For live sub-satellite position, see the globe view (requires WebGL).

§ Visibility from observer

Set your observer location to see the next 7 days of passes ≥ 10°. The values pass through the URL so the page stays shareable.

No JS? Fill the form by hand. The geolocation button needs JavaScript.